• In Portugal
  • List of Countries
  • For 7 days
  • Water Temperature
  • Satellite Maps
  • Weather Map
  • Weather Widgets
  • user-avatar
    Login

    Hourly Weather Pustkowko

    Today, 22 October, Monday

    Time Temperature Precipitation Wind Pressure Humidity
    00:00 +7°C° 0 mm 5 mps 767 mmHg 83%
    01:00 +7°C° 0 mm 5 mps 767 mmHg 81%
    02:00 +7°C° 0 mm 5 mps 766 mmHg 82%
    03:00 +7°C° 0 mm 5 mps 766 mmHg 83%
    04:00 +6°C° 0 mm 5 mps 765 mmHg 83%
    05:00 +7°C° 0 mm 5 mps 765 mmHg 83%
    06:00 +7°C° 0 mm 5 mps 765 mmHg 83%
    07:00 +7°C° 0 mm 5 mps 765 mmHg 83%
    08:00 +7°C° 0.3 mm 5 mps 765 mmHg 83%
    09:00 +8°C° 0.3 mm 5 mps 765 mmHg 84%
    10:00 +9°C° 0.3 mm 5 mps 765 mmHg 84%
    11:00 +9°C° 0.3 mm 6 mps 765 mmHg 82%
    12:00 +10°C° 0.3 mm 6 mps 765 mmHg 79%
    13:00 +10°C° 0.3 mm 6 mps 765 mmHg 77%
    14:00 +10°C° 0 mm 6 mps 766 mmHg 74%
    15:00 +10°C° 0 mm 6 mps 766 mmHg 71%
    16:00 +9°C° 0 mm 6 mps 766 mmHg 68%
    17:00 +9°C° 0 mm 6 mps 766 mmHg 70%
    18:00 +8°C° 0 mm 6 mps 766 mmHg 72%
    19:00 +8°C° 0 mm 5 mps 766 mmHg 74%
    20:00 +8°C° 0 mm 5 mps 766 mmHg 75%
    21:00 +7°C° 0 mm 5 mps 766 mmHg 75%
    22:00 +7°C° 0 mm 5 mps 766 mmHg 76%
    23:00 +7°C° 0 mm 6 mps 765 mmHg 77%

    Tomorrow, 23 October, Tuesday

    Time Temperature Precipitation Wind Pressure Humidity
    00:00 +7°C° 0 mm 6 mps 765 mmHg 78%
    01:00 +6°C° 0 mm 7 mps 764 mmHg 79%
    02:00 +5°C° 0.3 mm 8 mps 763 mmHg 79%
    03:00 +5°C° 0.3 mm 8 mps 762 mmHg 79%
    04:00 +5°C° 0.3 mm 9 mps 760 mmHg 80%
    05:00 +5°C° 1.3 mm 10 mps 759 mmHg 81%
    06:00 +4°C° 1.3 mm 11 mps 758 mmHg 83%
    07:00 +4°C° 1.3 mm 12 mps 756 mmHg 84%
    08:00 +5°C° 1.8 mm 12 mps 755 mmHg 85%
    09:00 +7°C° 1.8 mm 12 mps 754 mmHg 86%
    10:00 +8°C° 1.8 mm 12 mps 752 mmHg 87%
    11:00 +8°C° 2.3 mm 12 mps 751 mmHg 86%
    12:00 +9°C° 2.3 mm 12 mps 751 mmHg 86%
    13:00 +10°C° 2.3 mm 12 mps 750 mmHg 86%
    14:00 +10°C° 1 mm 12 mps 749 mmHg 83%
    15:00 +10°C° 1 mm 12 mps 749 mmHg 81%
    16:00 +10°C° 1 mm 12 mps 748 mmHg 79%
    17:00 +10°C° 0.7 mm 12 mps 748 mmHg 78%
    18:00 +10°C° 0.7 mm 12 mps 748 mmHg 78%
    19:00 +10°C° 0.7 mm 12 mps 747 mmHg 78%
    20:00 +10°C° 0.5 mm 12 mps 747 mmHg 76%
    21:00 +9°C° 0.5 mm 12 mps 746 mmHg 73%
    22:00 +9°C° 0.5 mm 12 mps 746 mmHg 71%
    23:00 +8°C° 0.2 mm 13 mps 746 mmHg 68%

    Day after tomorrow, 24 October, Wednesday

    Time Temperature Precipitation Wind Pressure Humidity
    00:00 +8°C° 0.2 mm 13 mps 746 mmHg 65%
    01:00 +7°C° 0.2 mm 13 mps 747 mmHg 62%
    02:00 +7°C° 0.1 mm 12 mps 748 mmHg 60%
    03:00 +5°C° 0.1 mm 12 mps 748 mmHg 57%
    04:00 +6°C° 0.1 mm 11 mps 749 mmHg 55%
    05:00 +4°C° 0 mm 11 mps 750 mmHg 54%
    06:00 +4°C° 0 mm 11 mps 750 mmHg 52%
    07:00 +4°C° 0 mm 11 mps 751 mmHg 51%
    08:00 +4°C° 0 mm 11 mps 752 mmHg 49%
    09:00 +6°C° 0 mm 11 mps 753 mmHg 47%
    10:00 +7°C° 0 mm 12 mps 753 mmHg 45%
    11:00 +7°C° 0 mm 12 mps 754 mmHg 45%
    12:00 +7°C° 0 mm 11 mps 755 mmHg 44%
    13:00 +8°C° 0 mm 11 mps 755 mmHg 43%
    14:00 +7°C° 0 mm 10 mps 756 mmHg 46%
    15:00 +7°C° 0 mm 9 mps 756 mmHg 49%
    16:00 +7°C° 0 mm 8 mps 756 mmHg 52%
    17:00 +6°C° 0 mm 8 mps 756 mmHg 54%
    18:00 +6°C° 0 mm 7 mps 757 mmHg 56%
    19:00 +7°C° 0 mm 6 mps 757 mmHg 59%
    20:00 +5°C° 0 mm 6 mps 757 mmHg 63%
    21:00 +6°C° 0 mm 5 mps 756 mmHg 67%
    22:00 +6°C° 0 mm 5 mps 756 mmHg 71%
    23:00 +6°C° 0.2 mm 5 mps 756 mmHg 75%

    25 October, Thursday

    Time Temperature Precipitation Wind Pressure Humidity
    00:00 +6°C° 0.2 mm 5 mps 755 mmHg 80%
    01:00 +7°C° 0.2 mm 5 mps 754 mmHg 84%
    02:00 +8°C° 0.8 mm 7 mps 753 mmHg 86%
    03:00 +9°C° 0.8 mm 8 mps 752 mmHg 88%
    04:00 +9°C° 0.8 mm 10 mps 751 mmHg 90%
    05:00 +9°C° 0.4 mm 11 mps 750 mmHg 86%
    06:00 +9°C° 0.4 mm 11 mps 750 mmHg 82%
    07:00 +10°C° 0.4 mm 12 mps 750 mmHg 78%
    08:00 +9°C° 0.2 mm 11 mps 750 mmHg 76%
    09:00 +9°C° 0.2 mm 11 mps 750 mmHg 75%
    10:00 +9°C° 0.2 mm 10 mps 751 mmHg 73%
    11:00 +9°C° 0.1 mm 10 mps 751 mmHg 71%
    12:00 +9°C° 0.1 mm 10 mps 751 mmHg 69%
    13:00 +11°C° 0.1 mm 10 mps 751 mmHg 67%
    14:00 +11°C° 0 mm 10 mps 752 mmHg 68%
    15:00 +9°C° 0 mm 10 mps 752 mmHg 70%
    16:00 +10°C° 0 mm 9 mps 752 mmHg 71%
    17:00 +10°C° 0 mm 9 mps 752 mmHg 72%
    18:00 +9°C° 0 mm 8 mps 753 mmHg 74%
    19:00 +9°C° 0 mm 8 mps 753 mmHg 75%
    20:00 +9°C° 0 mm 7 mps 754 mmHg 77%
    21:00 +8°C° 0 mm 6 mps 754 mmHg 78%
    22:00 +8°C° 0 mm 5 mps 754 mmHg 79%
    23:00 +8°C° 0.1 mm 5 mps 754 mmHg 80%

    26 October, Friday

    Time Temperature Precipitation Wind Pressure Humidity
    00:00 +8°C° 0.1 mm 4 mps 754 mmHg 82%
    01:00 +8°C° 0.1 mm 3 mps 754 mmHg 83%
    02:00 +8°C° 0.1 mm 3 mps 754 mmHg 83%
    03:00 +8°C° 0.1 mm 3 mps 754 mmHg 83%
    04:00 +8°C° 0.1 mm 3 mps 754 mmHg 84%
    05:00 +7°C° 0.1 mm 4 mps 754 mmHg 86%
    06:00 +7°C° 0.1 mm 4 mps 754 mmHg 87%
    07:00 +7°C° 0.1 mm 4 mps 754 mmHg 89%
    08:00 +7°C° 0 mm 4 mps 753 mmHg 86%
    09:00 +8°C° 0 mm 5 mps 753 mmHg 82%
    10:00 +8°C° 0 mm 5 mps 753 mmHg 79%
    11:00 +9°C° 0.2 mm 5 mps 752 mmHg 79%
    12:00 +9°C° 0.2 mm 6 mps 752 mmHg 78%
    13:00 +10°C° 0.2 mm 6 mps 751 mmHg 78%
    14:00 +10°C° 0.1 mm 6 mps 751 mmHg 79%
    15:00 +10°C° 0.1 mm 6 mps 750 mmHg 79%
    16:00 +10°C° 0.1 mm 5 mps 750 mmHg 80%
    17:00 +10°C° 0.1 mm 6 mps 749 mmHg 81%
    18:00 +10°C° 0.1 mm 6 mps 749 mmHg 82%
    19:00 +10°C° 0.1 mm 6 mps 749 mmHg 83%
    20:00 +10°C° 0.1 mm 6 mps 748 mmHg 84%
    21:00 +9°C° 0.1 mm 6 mps 748 mmHg 84%
    22:00 +9°C° 0.1 mm 6 mps 748 mmHg 85%
    23:00 +8°C° 0 mm 6 mps 747 mmHg 85%

    27 October, Saturday

    Time Temperature Precipitation Wind Pressure Humidity
    00:00 +8°C° 0 mm 6 mps 747 mmHg 86%
    01:00 +8°C° 0 mm 7 mps 747 mmHg 86%
    02:00 +8°C° 0.1 mm 6 mps 747 mmHg 86%
    03:00 +8°C° 0.1 mm 6 mps 747 mmHg 86%
    04:00 +8°C° 0.1 mm 6 mps 747 mmHg 85%
    05:00 +7°C° 0 mm 6 mps 747 mmHg 85%
    06:00 +7°C° 0 mm 6 mps 747 mmHg 85%
    07:00 +6°C° 0 mm 5 mps 747 mmHg 85%
    08:00 +5°C° 0 mm 6 mps 747 mmHg 80%
    09:00 +7°C° 0 mm 6 mps 748 mmHg 76%
    10:00 +7°C° 0 mm 6 mps 748 mmHg 72%
    11:00 +8°C° 0 mm 6 mps 748 mmHg 68%
    12:00 +8°C° 0 mm 6 mps 748 mmHg 64%
    13:00 +9°C° 0 mm 5 mps 748 mmHg 61%
    14:00 +9°C° 0 mm 5 mps 748 mmHg 63%
    15:00 +8°C° 0 mm 4 mps 748 mmHg 65%
    16:00 +9°C° 0 mm 3 mps 748 mmHg 67%
    17:00 +8°C° 0 mm 3 mps 749 mmHg 68%
    18:00 +8°C° 0 mm 3 mps 749 mmHg 69%
    19:00 +8°C° 0 mm 2 mps 749 mmHg 70%
    20:00 +7°C° 0 mm 2 mps 749 mmHg 71%
    21:00 +7°C° 0 mm 2 mps 749 mmHg 72%
    22:00 +8°C° 0 mm 1 mps 749 mmHg 72%
    23:00 +8°C° 0 mm 1 mps 749 mmHg 73%

    28 October, Sunday

    Time Temperature Precipitation Wind Pressure Humidity
    00:00 +8°C° 0 mm 1 mps 749 mmHg 73%
    01:00 +8°C° 0 mm 1 mps 749 mmHg 73%
    02:00 +8°C° 0 mm 1 mps 749 mmHg 75%
    03:00 +7°C° 0 mm 1 mps 749 mmHg 76%
    04:00 +7°C° 0 mm 1 mps 749 mmHg 77%
    05:00 +7°C° 0.1 mm 1 mps 749 mmHg 78%
    06:00 +7°C° 0.1 mm 1 mps 749 mmHg 79%
    07:00 +7°C° 0.1 mm 1 mps 749 mmHg 80%
    08:00 +8°C° 0.1 mm 1 mps 749 mmHg 79%
    09:00 +8°C° 0.1 mm 1 mps 749 mmHg 77%
    10:00 +8°C° 0.1 mm 2 mps 749 mmHg 75%
    11:00 +8°C° 0.5 mm 2 mps 749 mmHg 76%
    12:00 +8°C° 0.5 mm 2 mps 749 mmHg 78%
    13:00 +8°C° 0.5 mm 3 mps 750 mmHg 79%
    14:00 +7°C° 0.8 mm 3 mps 750 mmHg 81%
    15:00 +7°C° 0.8 mm 3 mps 750 mmHg 84%
    16:00 +7°C° 0.8 mm 3 mps 750 mmHg 86%
    17:00 +7°C° 0.5 mm 3 mps 751 mmHg 86%
    18:00 +7°C° 0.5 mm 2 mps 751 mmHg 87%
    19:00 +6°C° 0.5 mm 2 mps 751 mmHg 87%
    20:00 +5°C° 0.6 mm 3 mps 752 mmHg 85%
    21:00 +5°C° 0.6 mm 4 mps 752 mmHg 83%
    22:00 +5°C° 0.6 mm 5 mps 752 mmHg 81%
    23:00 +3°C° 0.6 mm 5 mps 753 mmHg 82%
    Show more